Theta_e
326 329 337 341 341 341 341 341 341 341 340 340 339 339 339 338 338 339 339 339 338 335 332 331 332 333 333 334 333 333 334 334 331 327 326 326 326 326 327 329 331 333 334 334 334 334 333 333 333 333 333 334 335 334 334 334 334 334 334 334 333 333 331 331 330 330 329 328 326 325 324 324 322 320 317 309 301 300 300 299 299 300 299 299 299
325 330 338 342 342 341 341 341 341 341 340 340 339 339 339 338 338 339 340 339 338 336 333 331 332 333 334 334 333 332 333 334 332 329 327 327 327 327 328 328 330 332 333 334 334 334 333 332 332 333 332 333 334 334 334 334 334 334 334 334 333 332 331 331 330 329 328 328 327 326 324 322 320 318 315 305 300 300 299 299 300 299 299 299 299
331 336 340 341 341 342 341 341 341 340 340 340 339 339 339 339 338 340 340 339 338 336 335 333 332 332 334 335 334 333 333 334 334 332 330 329 328 328 329 329 329 331 333 334 334 334 332 331 332 333 332 333 333 334 334 334 335 334 334 333 332 332 331 330 329 329 328 328 327 325 323 320 318 317 313 304 300 300 299 299 300 299 299 299 299
335 339 340 341 341 342 341 341 341 340 340 340 339 339 339 339 339 340 340 340 338 336 336 335 332 333 335 336 335 334 334 335 335 333 332 331 329 329 330 330 331 332 333 335 335 333 332 332 332 333 333 333 333 334 334 334 334 334 333 332 331 331 330 330 329 329 329 328 326 324 322 319 317 316 312 305 300 300 299 300 300 300 299 300 300
334 338 340 341 341 341 341 341 341 341 340 340 338 337 338 339 339 340 340 340 338 337 336 335 334 334 336 337 336 336 336 336 336 334 332 331 330 331 331 331 332 332 334 335 335 333 332 332 333 334 334 334 334 334 334 334 334 333 333 331 330 330 329 329 328 328 328 328 327 325 321 318 316 315 311 306 302 300 300 301 302 302 302 302 301
333 333 335 339 341 341 341 342 341 341 340 338 335 335 338 339 339 340 340 340 339 338 337 336 335 334 336 336 336 336 337 336 335 333 332 330 330 332 332 331 332 333 334 335 335 333 332 332 333 334 335 334 334 334 333 333 333 332 332 331 330 329 329 328 327 326 327 328 328 327 324 321 318 314 310 306 302 300 301 303 304 304 304 303 302
337 335 332 335 339 341 342 341 341 341 338 336 335 336 338 339 339 340 340 340 339 338 337 337 336 334 334 335 335 336 336 335 334 333 331 329 331 332 332 331 332 333 334 335 335 334 332 332 334 335 335 334 334 334 332 331 330 330 330 329 329 329 329 329 327 325 326 327 328 328 327 324 320 317 314 310 305 302 302 304 305 305 305 303 302
337 339 338 337 338 340 341 341 341 340 337 336 336 337 337 338 339 340 341 340 339 338 338 337 336 335 334 334 335 336 335 334 333 332 331 331 332 333 332 330 332 333 334 335 335 334 332 332 334 335 335 335 334 333 332 331 330 329 329 329 329 329 329 329 328 326 325 325 326 327 326 324 320 319 319 317 312 307 305 305 305 305 305 304 302
335 338 339 339 338 338 339 340 340 338 338 337 335 334 337 338 339 340 341 341 340 339 338 338 337 336 335 334 335 335 335 334 333 333 332 332 333 333 331 330 331 333 334 335 334 334 332 332 333 334 334 333 332 331 332 332 331 331 330 330 329 329 329 329 328 327 326 325 325 325 324 322 320 319 321 320 317 312 308 306 306 306 306 305 303
334 336 337 339 339 337 335 337 338 338 338 336 333 334 338 339 340 340 340 341 340 339 339 338 337 337 336 335 334 334 334 334 333 333 333 333 333 333 332 330 330 332 333 334 334 334 333 332 332 333 333 332 331 331 331 332 332 331 329 328 327 327 327 327 327 327 326 325 325 325 323 321 320 319 320 320 319 316 313 310 308 308 307 306 303
334 337 337 338 339 338 336 335 337 339 339 338 336 337 339 340 340 340 340 341 340 340 339 338 338 337 337 336 334 333 333 333 332 333 333 333 333 333 331 330 330 330 332 334 335 334 333 333 332 333 333 333 332 332 332 333 331 327 326 325 324 324 324 325 326 326 326 325 325 324 322 321 319 318 318 318 319 319 317 315 311 309 308 306 304
333 336 337 339 340 341 341 340 341 341 341 340 338 338 340 340 340 340 340 341 341 340 339 339 338 337 337 336 335 334 333 331 331 332 332 333 333 332 332 331 330 330 332 334 335 334 333 333 333 333 333 333 333 333 333 332 329 325 324 324 324 323 322 322 323 324 324 323 323 321 320 319 317 316 315 315 317 318 318 317 314 310 308 306 306
332 337 338 339 339 340 341 341 341 341 341 340 338 339 341 341 341 341 341 341 341 340 340 339 338 337 337 336 335 335 333 331 331 331 331 331 332 332 331 331 330 330 331 333 334 333 333 332 332 332 333 333 333 333 332 331 329 325 323 323 323 322 320 319 319 319 319 319 319 319 318 316 313 311 310 311 315 316 316 315 313 310 308 306 306
328 337 339 338 339 339 340 341 341 341 341 340 340 340 341 341 341 341 341 341 341 340 340 339 338 337 337 336 335 335 334 332 331 331 330 330 331 331 330 330 330 330 330 332 333 333 333 333 332 332 333 333 333 333 332 331 328 324 320 321 322 320 317 315 315 314 315 314 315 315 313 311 307 306 306 308 312 313 313 312 312 310 308 307 307
321 335 340 338 337 337 339 341 341 341 341 341 340 341 341 341 341 341 341 341 341 340 340 340 338 337 337 336 336 335 334 333 332 330 330 330 331 331 330 330 331 331 330 332 333 333 333 333 333 333 333 333 333 333 332 330 327 322 318 319 320 318 315 313 312 311 311 310 310 311 309 306 303 303 304 306 308 308 308 309 310 309 308 307 307
315 330 340 340 338 336 338 340 340 340 341 341 341 341 341 341 341 341 341 341 341 340 340 340 339 338 337 336 335 335 334 333 333 332 330 330 331 331 331 331 332 332 332 332 332 332 333 333 333 332 333 333 332 332 330 329 325 320 319 320 319 316 313 312 311 310 308 307 307 307 306 304 302 302 302 303 304 304 304 306 307 308 307 307 306
313 324 337 341 340 338 338 339 340 340 340 341 341 340 340 340 341 341 341 341 341 340 340 340 339 338 337 336 335 335 334 334 333 332 330 330 331 331 331 331 332 332 333 332 332 332 333 333 333 333 333 332 331 330 329 327 323 319 321 322 318 313 312 310 309 307 305 304 304 304 303 302 302 302 302 302 302 302 302 303 304 306 306 306 305
312 319 332 340 341 341 340 340 339 339 339 340 340 338 338 339 340 340 341 341 341 340 340 340 339 338 337 336 335 335 335 335 334 332 330 330 330 331 331 331 332 333 333 333 332 332 333 333 333 333 333 332 330 328 327 325 320 318 321 321 316 312 311 309 306 305 303 303 303 303 302 302 301 301 301 301 301 300 300 300 301 304 306 306 305
313 316 329 339 341 340 341 341 340 340 339 339 338 338 339 340 340 340 340 340 340 341 340 340 339 338 338 336 335 335 335 335 335 333 331 330 329 330 329 330 332 333 334 333 332 332 333 333 333 332 332 331 329 327 326 324 322 321 322 320 315 311 309 307 304 303 302 302 302 302 301 301 301 301 300 300 300 300 300 300 300 302 304 305 306
314 316 326 336 339 339 340 341 340 340 340 340 339 340 340 340 340 340 340 340 341 341 340 340 339 338 338 337 336 336 336 336 336 334 332 330 329 329 329 330 333 334 334 333 332 332 332 332 332 331 331 331 329 327 326 325 324 324 322 317 312 309 307 305 304 302 302 302 301 301 301 301 300 300 300 300 300 300 299 299 299 300 301 303 305
316 316 324 332 336 338 339 340 341 340 340 340 340 340 340 340 340 340 340 340 341 341 340 339 339 339 338 337 337 336 336 336 336 336 333 331 329 329 329 332 334 335 334 333 332 332 332 332 332 330 330 330 329 327 326 325 324 322 319 314 310 308 306 304 302 302 301 301 301 301 301 300 300 300 300 299 299 299 299 299 299 299 299 301 304
319 317 323 330 334 337 339 341 342 341 341 341 340 340 340 340 340 340 340 340 340 341 340 340 339 339 338 337 337 337 337 337 337 337 334 332 330 329 330 333 335 335 334 333 332 332 332 332 331 329 330 330 328 327 326 325 323 319 315 312 310 308 305 302 301 301 301 301 301 300 300 300 300 299 299 299 299 299 299 299 299 299 298 299 301
322 318 322 330 333 335 339 340 342 341 341 341 340 340 340 340 340 340 340 340 341 341 340 339 339 339 338 337 337 337 337 337 338 337 335 333 331 330 331 335 336 335 335 334 333 333 332 332 330 328 329 329 327 326 326 324 322 318 314 312 309 307 304 301 301 301 300 300 300 300 300 300 299 299 299 299 299 299 299 298 298 298 298 298 299
325 320 323 330 333 336 338 339 341 341 341 341 341 340 340 340 340 340 340 340 341 341 340 339 339 339 338 338 338 338 337 338 338 337 335 333 331 330 333 335 336 336 335 334 333 333 332 331 329 328 330 329 326 326 326 323 321 318 314 311 308 305 303 301 301 300 300 300 300 300 299 299 299 299 299 298 298 298 298 298 298 298 298 297 297
327 322 324 330 334 336 338 339 340 341 341 341 341 341 340 340 340 340 340 340 341 341 340 339 339 339 338 338 338 338 338 338 338 337 335 333 331 331 334 335 335 335 335 334 333 333 332 330 328 329 330 328 326 326 325 322 320 316 313 309 306 304 302 300 300 300 300 300 299 299 299 299 299 298 298 298 298 298 298 298 298 298 297 297 297
330 326 325 330 335 337 338 339 340 340 341 341 341 341 340 340 340 339 339 340 340 340 339 338 339 338 338 339 338 338 338 338 338 337 334 333 331 332 334 334 334 335 336 334 333 332 331 329 328 330 330 328 326 326 324 322 319 315 311 308 306 303 301 300 300 299 299 299 299 299 299 298 298 298 298 298 298 298 298 297 298 298 297 297 297
332 329 327 330 335 337 338 340 340 340 341 341 341 341 340 340 340 339 339 339 339 339 338 338 338 338 338 339 339 338 338 339 338 336 334 332 331 332 334 334 334 335 335 334 333 332 330 329 330 330 329 327 326 326 323 321 318 314 310 307 305 303 301 300 300 299 299 299 299 298 298 298 298 298 297 298 298 297 297 297 297 297 297 297 297
333 331 328 329 334 337 338 339 340 340 341 341 341 341 340 340 339 339 339 339 339 339 338 338 337 337 338 338 338 338 338 339 338 335 334 332 331 333 334 333 334 335 335 334 333 331 330 330 330 329 328 327 326 325 323 319 316 312 309 307 304 302 301 300 300 299 299 299 298 298 298 298 298 298 298 298 297 297 297 297 298 298 297 297 298
334 334 331 329 333 336 338 339 340 340 341 341 341 341 340 340 339 339 339 338 339 338 338 338 337 337 337 337 337 337 338 339 337 335 333 332 332 334 333 333 335 336 335 333 332 331 330 330 329 327 327 326 326 324 322 319 315 312 309 307 304 302 301 300 300 299 299 299 298 298 298 298 298 298 298 298 297 298 298 298 298 298 297 297 298
334 337 332 329 333 336 337 338 339 340 341 341 341 341 340 340 340 339 339 339 338 338 338 338 338 337 336 336 337 337 338 338 337 335 334 334 334 333 333 334 335 335 334 333 331 330 330 329 328 327 327 326 326 324 322 318 314 310 308 306 304 302 300 300 299 299 299 299 298 298 298 298 298 298 297 297 298 299 300 298 298 297 297 297 298
330 337 333 330 333 335 336 338 338 339 340 340 341 341 340 340 340 339 339 339 338 338 338 338 338 337 336 336 336 337 338 338 337 335 335 334 334 334 335 335 333 332 333 332 329 328 328 328 327 327 326 326 326 324 321 316 312 310 308 305 303 302 301 300 299 299 299 299 299 299 298 298 298 297 297 298 299 300 299 297 297 297 297 297 297
326 336 335 331 333 336 337 338 339 339 340 340 340 340 340 340 340 339 339 339 339 339 338 338 337 337 337 336 336 337 338 338 336 334 333 334 335 335 335 334 331 331 332 331 328 327 327 328 328 327 326 326 326 323 319 315 312 310 307 305 303 302 301 300 300 299 299 299 299 299 298 298 298 298 297 298 299 299 298 297 297 297 297 296 296
323 334 336 333 333 336 336 338 339 339 339 340 340 340 339 339 339 339 339 339 339 338 338 338 337 337 337 336 336 337 338 338 336 334 333 335 335 334 334 334 331 331 332 330 328 327 327 328 328 326 326 326 326 323 318 314 312 310 307 305 303 302 301 301 300 300 300 300 299 299 299 298 298 297 298 298 299 298 297 297 297 297 296 297 296
319 330 337 336 334 336 337 337 338 339 339 339 340 339 339 339 338 339 339 339 339 338 338 338 337 337 337 336 336 336 337 338 337 334 333 334 333 333 335 333 331 331 331 330 330 327 326 327 326 325 326 326 325 323 318 315 313 310 307 305 303 302 301 301 301 301 300 300 300 299 299 299 298 298 298 298 298 297 297 297 297 297 296 296 296
316 323 333 338 336 336 337 337 338 339 339 339 339 339 339 339 339 339 339 339 339 338 338 338 337 338 337 336 336 336 337 338 336 334 334 333 333 334 334 331 330 331 330 330 330 328 326 326 325 324 326 326 325 322 319 316 313 311 308 305 303 302 302 302 302 301 301 300 300 299 299 299 299 298 298 298 297 297 297 297 297 296 296 296 296
317 318 328 337 338 337 337 338 338 339 339 339 339 339 339 338 338 339 339 339 339 339 338 338 338 338 337 336 336 336 338 338 336 336 336 334 333 333 331 330 330 330 330 331 330 328 327 326 325 325 326 326 324 322 319 317 314 311 308 306 304 304 303 302 302 302 301 300 300 300 300 300 299 299 298 298 297 297 297 296 296 296 296 296 296
320 318 324 334 338 338 338 338 338 339 339 339 339 339 339 339 338 339 339 339 339 339 338 338 338 337 337 336 336 337 338 337 335 336 336 334 333 332 331 331 331 330 331 331 329 328 328 327 325 326 327 325 324 323 320 317 314 311 309 307 306 305 304 303 302 301 301 301 301 301 301 301 300 299 298 298 297 297 296 296 296 296 296 296 296
323 320 323 332 338 338 338 338 338 338 339 339 339 339 339 339 339 338 339 339 339 339 338 338 338 337 336 336 337 337 337 336 336 336 335 334 333 331 331 332 331 331 331 331 328 328 329 327 326 326 327 325 324 323 321 318 315 312 310 309 308 307 305 304 303 302 302 302 302 302 302 302 302 300 298 298 297 296 296 296 296 296 296 296 296
326 322 325 333 337 338 338 339 338 338 339 339 339 339 339 338 339 339 339 339 339 338 338 337 337 337 336 336 337 337 336 336 337 335 334 334 332 330 331 331 331 332 331 329 328 329 329 328 326 326 326 325 324 323 321 319 316 313 311 310 309 309 307 306 304 304 303 303 303 303 303 303 303 300 298 298 297 296 296 296 296 296 296 296 296
328 324 327 334 338 337 338 339 338 339 339 338 339 339 338 338 338 338 339 339 338 338 337 337 337 336 337 337 337 337 337 336 335 333 334 334 331 330 331 331 332 332 331 329 329 329 330 328 327 326 326 325 324 323 322 320 318 315 313 312 311 310 309 308 306 305 305 305 305 305 304 304 303 301 299 298 297 296 296 296 296 296 296 297 298
329 325 327 333 337 337 338 338 338 339 339 339 339 338 338 338 338 338 339 338 338 338 337 337 337 337 337 337 336 336 336 335 333 333 334 333 331 331 332 332 333 332 330 328 329 329 329 328 326 326 325 324 324 324 321 320 318 316 314 312 311 311 311 310 308 307 306 306 306 306 305 305 304 302 299 298 298 297 296 297 297 297 298 300 301
329 326 325 329 333 336 338 338 338 339 339 338 338 338 338 338 338 338 338 337 338 337 337 337 337 336 336 337 336 335 334 334 334 333 332 330 331 332 332 333 333 331 330 328 328 328 328 326 325 325 325 325 325 324 321 319 317 316 314 313 313 312 311 310 309 308 307 307 307 307 306 305 304 303 301 300 299 298 298 299 300 300 300 301 302
330 327 326 329 331 333 337 338 337 338 338 338 338 338 338 338 338 338 337 337 337 337 337 337 337 336 336 336 335 335 334 334 335 334 331 330 332 333 333 333 332 331 330 328 328 328 328 326 324 324 324 325 325 324 322 320 318 316 315 315 314 312 311 310 310 309 308 308 308 308 307 306 305 304 303 302 301 300 301 302 303 303 303 302 302
330 328 328 329 330 332 335 337 337 337 338 338 338 338 338 338 338 337 337 336 336 336 337 337 337 337 336 336 335 335 334 333 334 334 333 332 333 333 333 332 332 331 330 328 328 328 327 326 325 324 324 325 326 325 323 321 319 317 316 314 313 311 311 310 310 309 309 308 308 308 308 307 306 305 304 303 303 303 303 304 305 304 303 302 302
330 330 329 329 329 331 333 335 337 337 337 337 338 337 338 337 337 337 336 335 334 335 336 337 337 337 336 336 335 334 333 332 334 335 335 334 333 333 333 332 332 331 330 328 329 328 327 326 325 324 325 326 326 325 324 322 319 317 315 314 313 311 311 310 310 309 309 308 308 308 308 307 306 306 305 304 304 304 304 305 305 305 303 302 302
330 331 330 330 330 331 332 334 335 336 337 337 338 337 337 337 336 336 335 335 334 334 335 336 336 336 335 334 334 334 334 334 335 336 336 334 333 333 333 332 332 331 330 329 328 328 327 326 325 324 325 326 326 325 324 322 319 316 315 315 313 312 311 310 309 309 309 308 308 309 308 307 306 306 306 305 304 304 305 305 305 305 303 303 303
330 331 331 331 331 331 331 333 334 335 336 337 338 337 337 337 336 334 334 335 334 334 335 335 334 334 333 332 333 334 334 334 334 335 335 335 334 333 333 332 332 331 330 329 328 328 327 326 325 325 325 325 325 324 323 322 320 318 316 315 314 312 312 311 310 310 310 310 309 309 309 308 306 305 305 305 305 305 305 305 305 304 304 303 303
329 330 330 331 331 331 331 332 333 335 336 337 337 337 337 337 336 334 333 334 335 334 334 334 333 333 333 332 332 334 334 333 333 334 333 333 333 333 332 331 330 329 328 327 327 327 327 325 325 325 325 325 324 323 323 323 322 319 318 316 315 313 313 312 311 311 311 310 310 309 309 308 306 305 305 304 305 305 305 304 304 304 304 304 304
329 329 330 330 331 332 332 332 333 334 336 336 337 337 337 337 336 334 333 334 335 334 334 334 333 333 333 333 333 334 334 333 333 333 333 333 333 332 332 331 329 328 327 326 326 326 326 325 325 325 324 324 324 323 323 322 321 319 318 316 315 314 313 312 312 311 311 310 310 309 309 308 307 305 304 304 304 305 304 304 302 302 303 305 305
329 329 330 330 330 331 332 332 332 334 335 336 337 336 336 336 335 335 334 334 335 334 333 333 333 332 334 335 334 334 334 333 333 333 332 332 332 331 331 330 329 328 327 327 326 326 326 326 325 324 324 324 324 322 320 319 318 317 316 316 315 314 313 312 311 311 310 310 309 309 308 307 306 304 303 303 303 303 303 302 301 301 304 305 306
329 329 329 329 330 331 332 332 332 333 334 335 335 335 335 335 335 335 334 333 333 333 332 333 332 332 334 335 335 334 333 333 333 333 332 331 331 330 330 330 328 327 327 326 326 326 325 325 325 324 324 323 322 320 318 317 317 316 315 314 314 313 312 311 311 310 310 309 309 308 307 305 304 303 302 302 302 301 301 300 300 301 304 305 306
Wind_Speed
37 40 46 46 44 43 44 44 42 41 41 41 39 38 38 38 36 35 34 33 32 33 35 37 38 37 36 35 33 32 30 28 26 26 26 23 22 20 19 18 17 14 13 13 13 13 13 13 14 14 15 15 15 14 14 14 13 12 12 12 12 13 12 13 14 14 13 13 12 11 10 10 9 8 8 6 4 2 1 1 1 1 1 1 1
38 41 45 44 42 43 44 44 42 42 43 42 41 40 40 39 38 36 35 35 35 34 35 38 38 38 38 37 35 33 32 30 28 28 26 24 22 20 18 18 17 15 14 13 13 13 14 14 14 14 15 15 15 15 15 14 14 13 13 14 13 13 13 14 15 15 15 14 12 10 10 10 10 10 9 7 5 3 2 2 2 2 2 1 1
42 42 43 43 44 44 45 45 43 43 43 42 42 41 40 41 40 38 37 37 36 35 34 36 37 38 37 35 34 33 32 31 29 27 25 24 22 20 18 17 17 17 15 14 14 14 14 14 14 14 14 15 15 15 16 15 14 14 14 14 14 14 14 15 16 16 16 14 11 10 10 10 10 12 11 8 6 5 4 4 4 4 3 3 2
42 41 41 43 43 44 46 46 44 43 42 42 42 42 42 43 42 40 38 37 37 35 34 34 36 37 35 33 33 32 31 31 29 28 26 24 23 20 18 18 18 17 16 15 14 15 15 15 14 14 14 14 15 15 16 16 16 16 15 15 14 15 16 17 17 17 18 16 12 10 11 10 11 12 11 10 8 7 7 7 6 6 5 4 3
43 41 41 42 43 45 48 48 47 45 44 44 43 43 44 45 44 41 39 38 37 35 34 35 36 36 36 35 34 33 32 32 32 30 28 26 25 22 19 19 19 18 16 16 15 15 15 15 14 14 14 14 14 14 15 15 16 16 16 15 15 15 16 17 18 19 19 19 16 13 11 10 11 11 10 11 10 9 9 9 8 7 7 5 3
43 44 44 44 45 47 48 49 49 48 47 46 45 45 44 45 45 42 40 38 37 36 35 36 37 38 39 39 38 37 36 35 34 32 30 28 25 22 20 20 20 18 17 17 16 16 16 15 14 14 14 14 14 14 14 15 15 16 16 16 16 16 16 17 18 19 20 21 20 19 16 14 12 10 10 11 10 11 11 10 9 8 7 5 4
40 42 45 47 47 47 48 49 50 51 51 48 47 47 45 45 45 44 41 39 38 37 37 37 38 39 40 41 40 39 38 36 34 30 29 27 24 21 21 22 21 19 18 17 16 16 16 15 14 14 14 15 15 14 12 12 13 14 15 15 16 17 17 18 18 18 20 21 21 21 21 19 16 12 11 10 10 12 13 12 11 9 8 7 7
40 41 44 46 48 48 49 50 53 54 53 51 50 49 46 45 46 45 43 40 38 38 38 38 38 40 41 41 40 38 37 35 32 29 27 25 23 22 22 23 22 21 19 18 17 17 17 16 15 15 16 16 15 13 12 11 12 13 14 14 16 18 18 18 17 18 19 19 20 21 20 20 18 14 12 10 9 11 14 15 13 11 9 9 9
42 43 44 46 48 49 49 50 53 55 54 53 52 49 47 47 47 46 44 42 40 39 38 38 38 39 40 41 41 39 36 34 31 29 27 25 24 23 23 24 23 22 20 18 18 18 18 17 16 17 16 16 14 13 13 13 12 13 14 15 16 17 17 17 17 17 18 18 19 19 19 19 18 16 14 12 11 11 13 15 15 13 12 11 11
42 45 46 47 49 49 48 48 52 55 55 54 52 49 48 48 48 48 46 44 42 40 39 39 39 39 40 40 40 39 38 35 31 28 27 26 25 24 24 24 24 23 21 20 20 20 19 18 17 17 16 15 14 14 15 14 13 13 13 14 15 15 15 16 16 17 18 18 18 18 18 17 17 17 16 15 14 13 13 13 15 15 14 13 13
39 43 45 46 49 49 48 49 52 54 54 53 51 50 49 49 50 49 47 46 43 40 39 39 39 40 40 40 40 39 38 36 32 29 28 27 26 25 24 24 24 24 22 21 21 21 19 18 17 17 16 16 16 16 16 14 12 13 14 13 13 13 12 13 16 17 18 19 19 18 18 17 17 17 16 16 15 15 14 13 13 16 15 14 14
37 41 45 45 46 47 47 48 49 49 49 50 51 51 50 51 51 50 49 47 44 41 40 40 40 41 41 40 40 39 38 35 33 30 29 28 27 26 24 24 25 24 24 23 23 21 20 19 18 17 17 17 17 17 15 13 12 13 14 12 12 12 12 12 14 17 18 18 19 18 17 17 17 17 15 15 14 13 14 14 13 16 17 16 16
36 40 44 45 47 48 48 46 45 45 46 49 51 52 51 51 51 51 50 49 46 43 41 41 41 41 41 41 40 39 37 35 33 31 29 28 27 26 25 25 25 25 25 24 23 22 21 21 19 18 17 17 17 16 14 13 13 14 14 12 11 12 12 12 13 15 16 17 18 17 17 17 16 16 14 14 13 13 14 15 14 16 19 19 18
34 39 42 46 48 49 50 48 46 46 47 49 52 52 51 51 52 52 51 49 46 44 42 42 42 42 42 41 41 40 37 35 34 31 29 28 27 26 25 24 24 24 24 23 22 22 22 21 19 17 16 16 15 15 15 14 15 15 14 12 12 12 12 12 13 15 16 17 18 17 17 15 14 14 13 12 13 14 15 16 16 17 20 19 18
31 37 41 46 50 51 51 50 48 48 50 51 52 52 52 52 52 52 51 49 47 45 44 43 43 43 42 42 41 40 38 36 33 31 29 28 26 26 25 23 22 22 22 22 21 21 21 20 18 17 16 15 15 16 16 15 15 15 14 13 12 12 13 13 14 15 16 17 17 16 15 13 13 12 12 12 13 14 15 16 17 19 21 19 18
31 37 40 44 50 52 53 52 51 51 51 52 53 53 53 53 53 52 51 50 48 46 45 44 44 43 43 43 42 40 39 37 34 32 30 28 26 25 25 24 22 21 22 22 21 21 20 19 18 16 15 15 15 15 15 13 13 14 14 13 13 13 14 14 14 15 16 16 15 14 13 12 12 12 11 12 13 14 15 16 17 19 21 20 19
30 37 42 44 49 53 53 52 52 52 53 53 54 54 55 54 54 53 51 50 49 46 46 45 45 44 43 43 42 40 39 37 34 32 30 28 26 25 25 24 22 21 22 22 21 20 19 18 17 16 15 15 14 13 12 12 13 14 14 14 13 14 14 14 15 15 16 15 13 12 12 12 12 12 12 12 13 14 15 16 16 17 20 20 19
30 36 42 47 50 53 52 51 52 53 54 55 56 56 56 55 54 53 52 51 49 47 47 46 45 45 44 43 42 41 39 37 34 32 30 29 27 26 26 25 22 21 22 22 21 20 19 18 17 16 15 14 12 12 13 13 15 16 15 14 13 14 14 15 15 15 14 12 12 12 12 12 12 11 12 12 13 13 13 14 14 15 18 19 18
29 36 41 47 51 53 52 50 51 53 54 56 57 57 56 55 53 52 52 51 49 48 48 47 46 45 44 43 41 40 39 37 34 32 30 29 28 27 26 24 22 22 22 22 21 20 19 18 17 16 15 13 13 14 15 15 16 16 16 15 13 14 14 14 14 13 12 11 11 11 11 12 11 11 12 11 12 12 12 12 12 14 17 18 18
25 35 40 44 48 51 52 51 52 53 54 55 56 56 55 54 53 52 50 49 48 48 48 48 47 46 45 43 42 40 39 37 35 33 31 29 28 26 25 24 22 22 22 22 21 20 19 18 17 16 15 14 15 15 15 16 17 16 16 15 13 13 14 14 14 12 12 11 11 11 11 11 11 11 11 11 11 11 11 10 11 12 14 17 18
18 32 39 43 47 50 52 52 52 53 54 55 55 55 54 54 53 52 50 49 49 48 48 48 48 47 45 44 43 41 39 37 35 33 31 29 28 27 25 23 23 23 22 22 21 20 19 18 17 16 15 15 16 16 16 17 17 16 15 14 13 13 14 15 14 12 12 11 11 11 12 11 11 11 11 11 11 10 10 9 10 10 12 14 17
11 29 39 43 47 49 51 52 52 52 53 53 53 52 52 52 51 51 50 50 50 49 49 49 49 47 46 45 43 41 39 37 35 33 31 29 28 27 25 23 22 23 22 22 22 20 19 18 17 16 16 15 16 16 17 17 16 14 14 13 12 13 15 15 14 12 11 11 11 12 12 12 11 12 11 11 10 9 9 8 9 9 9 11 14
7 23 36 43 47 50 51 52 52 52 52 51 51 51 52 52 51 51 51 51 51 49 49 50 49 48 46 45 44 42 40 37 35 33 31 30 28 26 24 23 21 21 22 23 22 21 20 19 18 17 16 15 15 16 16 16 15 14 13 12 13 14 15 14 13 11 11 11 11 12 12 12 11 11 11 10 9 9 8 8 7 8 8 9 10
8 16 33 41 45 48 50 52 53 52 51 50 50 50 51 51 51 51 51 51 51 50 49 50 49 47 46 46 45 43 41 38 35 33 32 30 28 26 24 22 21 21 23 23 22 21 21 20 19 17 16 16 15 15 15 15 15 14 13 13 14 15 15 14 12 11 10 11 11 12 12 12 11 11 10 10 9 8 8 7 7 6 7 8 8
12 10 27 37 43 47 49 51 52 52 50 50 50 50 51 51 52 52 52 51 51 50 50 49 49 47 47 46 45 44 41 38 35 33 32 30 28 26 24 21 21 22 23 22 21 21 21 20 19 17 16 16 15 15 15 15 14 14 14 15 15 14 14 13 11 11 11 11 11 11 11 11 11 10 10 9 9 8 7 6 6 6 6 7 7
14 8 21 35 41 45 48 49 49 50 50 50 49 50 51 51 52 53 52 51 51 51 50 49 48 48 47 47 46 44 42 38 35 34 32 30 29 27 24 22 22 23 23 22 21 21 21 20 19 17 16 16 16 16 15 15 14 14 15 15 15 14 14 12 11 11 11 12 11 11 11 11 10 10 9 9 9 8 7 7 6 6 6 7 7
16 10 17 31 39 42 45 47 47 49 49 50 51 51 51 51 51 51 50 50 51 51 50 49 48 48 48 47 46 44 41 37 35 33 31 31 30 27 24 22 22 24 24 22 21 21 21 20 18 17 16 16 16 16 15 15 15 15 15 15 14 14 13 12 12 12 12 13 12 12 11 10 10 10 10 10 9 8 8 8 6 6 6 7 7
19 12 15 28 38 40 43 45 47 48 48 49 50 51 51 51 51 51 49 49 50 50 50 49 48 48 48 47 45 43 40 36 33 32 31 30 29 26 23 23 24 26 24 21 20 21 20 19 18 17 16 16 16 16 16 15 16 15 15 14 14 13 13 13 13 13 14 13 13 12 12 11 11 11 11 11 9 7 8 8 7 8 9 10 9
23 16 14 26 37 40 42 45 47 48 48 47 48 48 49 49 49 49 48 48 49 50 50 49 49 49 48 46 44 42 39 35 32 31 30 29 27 24 23 24 25 25 22 21 21 21 20 19 18 17 17 17 16 16 16 16 15 15 14 14 14 13 13 13 14 14 14 14 14 13 13 13 13 13 12 11 8 7 9 11 11 12 12 11 10
24 18 14 24 35 39 42 45 47 48 49 48 48 48 48 48 47 46 46 47 48 49 49 49 49 49 47 45 43 41 38 34 31 30 29 28 25 24 24 24 24 22 21 22 22 21 20 18 18 17 17 17 17 16 16 15 14 14 13 14 14 14 14 14 14 15 15 15 15 15 15 15 14 13 12 10 8 9 12 13 12 11 11 11 11
22 16 14 24 34 38 41 44 46 48 49 49 49 49 49 48 47 47 47 47 48 48 49 49 48 48 46 43 41 40 37 34 31 29 29 27 26 26 27 25 24 22 23 23 22 21 20 18 18 18 17 17 16 15 15 15 14 14 14 14 14 13 14 14 14 15 15 15 15 16 16 15 13 13 12 10 11 13 13 11 10 10 11 12 11
20 14 14 24 33 37 40 43 45 47 48 48 48 47 48 48 47 47 48 48 48 49 49 49 48 47 45 41 39 38 37 34 32 29 28 28 28 28 28 26 24 22 23 23 21 20 19 18 18 18 17 17 16 15 15 15 14 14 14 14 14 14 14 14 14 15 15 15 16 16 15 14 13 12 12 12 13 13 12 12 11 12 13 12 11
17 12 12 22 31 36 39 41 42 44 47 48 48 48 48 48 49 49 48 48 48 48 48 48 47 46 44 40 38 37 37 36 32 28 28 30 29 28 29 27 25 23 22 22 20 18 18 18 19 19 18 16 15 14 14 14 14 14 14 14 14 14 14 14 14 15 15 15 15 15 14 14 13 12 12 13 14 14 13 13 12 13 14 13 12
18 11 10 17 27 33 36 38 40 42 44 46 47 48 48 48 48 48 48 49 49 48 48 47 46 45 43 40 38 37 38 37 32 27 28 29 28 29 29 28 25 23 22 23 21 18 18 19 20 20 18 15 14 13 14 14 14 14 14 14 14 14 14 14 13 13 14 14 14 14 14 13 11 11 13 14 15 14 14 14 13 14 14 13 12
21 13 9 14 21 29 33 36 39 40 42 42 43 45 45 45 45 46 46 48 48 48 48 47 46 45 42 40 39 38 39 38 32 28 28 27 27 29 28 26 25 24 23 23 21 18 17 18 18 17 16 15 13 13 14 14 14 14 14 15 15 15 14 14 13 13 13 13 14 13 13 11 10 11 13 14 15 15 15 15 14 14 14 13 12
23 15 10 13 17 25 30 33 36 39 40 41 42 42 42 42 43 44 45 46 46 46 46 46 46 44 42 41 39 40 41 38 33 31 30 27 27 28 27 25 24 24 24 25 22 19 18 17 15 15 15 14 12 12 14 15 15 15 15 15 15 15 14 14 14 14 14 13 13 12 11 11 11 12 13 15 15 16 16 15 14 14 13 13 12
24 16 10 13 17 23 27 31 35 37 38 40 41 41 41 42 43 44 44 44 44 45 45 45 45 44 43 42 41 42 41 36 33 33 31 28 27 27 27 26 25 24 26 25 22 20 19 17 15 15 15 13 11 12 14 15 16 16 16 15 14 14 14 14 14 14 13 12 11 10 10 10 11 12 14 15 15 17 17 15 15 14 13 14 13
22 14 9 13 16 21 26 30 33 35 37 39 40 40 41 41 42 43 44 44 44 45 45 45 45 45 43 42 42 42 39 36 35 34 31 29 27 26 26 26 25 26 26 23 19 20 21 19 15 16 16 12 10 10 13 14 15 15 15 14 13 13 14 14 14 14 12 11 10 10 10 11 11 12 14 15 15 17 17 16 15 14 15 15 14
18 9 6 12 15 19 25 29 32 34 36 37 38 39 40 41 42 43 44 44 45 46 46 46 46 45 43 42 42 40 37 35 34 32 30 29 27 26 27 25 24 24 23 21 20 21 23 20 16 16 17 13 10 11 12 13 14 14 14 13 13 13 13 13 14 13 12 11 10 10 11 11 11 12 14 15 16 17 18 16 14 15 16 15 12
16 5 6 12 15 18 23 28 31 33 34 35 36 38 39 41 42 42 43 45 46 47 47 46 45 44 43 42 41 38 36 34 32 30 30 28 25 26 27 27 28 26 22 21 22 23 24 21 16 17 18 15 12 13 12 12 13 13 13 13 13 13 12 11 12 12 11 11 10 10 11 11 11 12 14 15 16 17 17 15 15 16 16 13 10
14 4 8 11 14 17 20 23 27 29 31 32 34 36 38 40 41 42 44 46 47 46 44 43 44 43 42 41 39 36 34 32 29 27 27 26 26 27 26 28 30 27 21 21 23 23 23 20 16 18 20 17 16 16 14 13 13 12 13 15 15 13 11 10 11 12 11 11 9 9 10 10 10 10 12 14 16 17 16 14 14 15 15 12 10
12 4 11 12 13 16 18 21 24 26 28 30 31 34 38 40 41 43 45 46 45 43 42 42 43 42 41 40 37 35 32 29 28 26 24 26 29 30 29 29 27 23 20 22 24 24 23 18 17 20 22 22 21 18 16 15 15 14 15 16 14 11 10 11 12 13 12 11 9 8 8 9 10 10 11 13 16 16 15 13 11 12 13 13 13
14 4 9 13 13 14 17 20 22 23 25 27 29 33 36 39 41 43 43 42 40 39 40 41 41 41 40 38 36 33 30 28 29 29 26 26 29 31 31 30 27 23 22 22 23 25 23 20 20 23 25 25 24 21 18 17 17 16 16 15 12 11 11 12 13 13 11 10 9 8 8 9 10 10 10 12 15 15 13 11 11 12 13 14 15
16 11 6 8 10 11 15 18 20 21 22 25 27 30 34 37 39 39 39 38 36 36 38 40 40 40 38 36 33 31 29 30 32 32 30 29 29 30 30 30 28 25 22 22 25 27 25 22 23 25 26 26 25 23 20 19 18 17 17 15 14 13 13 14 14 13 11 11 10 10 9 9 11 12 11 12 15 15 13 12 12 13 13 14 15
16 14 10 8 8 9 12 16 19 20 22 25 28 29 29 32 36 38 37 35 34 35 37 38 39 38 35 33 32 31 30 32 34 35 33 32 30 30 30 29 26 24 22 23 28 29 25 22 24 26 26 27 26 25 22 20 19 18 17 16 15 15 15 15 15 13 12 12 13 12 11 11 12 14 14 14 15 15 13 13 13 14 14 15 15
15 15 11 10 10 11 12 15 18 20 21 26 29 28 25 28 34 37 36 35 37 39 39 38 37 35 32 31 32 33 35 37 38 37 35 32 29 29 30 27 23 23 23 24 28 29 26 23 23 25 25 25 26 26 23 20 19 19 18 17 17 17 17 16 17 16 14 14 15 15 14 14 14 16 17 16 15 15 14 13 14 14 15 16 16
14 14 13 11 12 13 13 15 18 19 21 24 27 27 27 30 33 33 32 34 37 39 39 37 34 31 30 31 33 37 41 41 39 37 35 32 29 29 30 27 22 24 25 24 26 29 27 22 21 22 23 22 23 23 22 20 20 20 20 19 19 18 18 18 18 17 16 16 17 18 17 16 16 17 19 18 16 16 15 15 16 16 17 16 16
14 15 15 13 13 14 14 15 17 19 21 25 28 29 31 34 34 31 29 31 34 34 34 33 31 30 31 31 32 36 39 38 35 35 34 32 30 31 30 25 20 21 22 21 23 26 25 21 19 20 20 18 18 18 18 19 21 20 20 19 19 19 19 18 18 17 17 18 19 19 19 19 18 19 20 19 18 17 17 17 18 19 19 18 17
15 15 15 15 15 14 14 15 18 20 23 27 29 31 34 35 34 31 29 31 33 31 30 30 31 31 35 36 33 32 34 34 34 34 33 31 30 29 28 22 17 15 15 15 18 22 21 20 18 16 14 13 12 12 12 14 17 18 17 17 16 16 16 15 15 15 17 19 21 21 21 20 19 19 20 20 20 19 19 19 19 19 20 20 18
13 13 14 16 15 14 14 15 18 20 24 28 30 32 34 33 32 32 32 32 32 29 28 31 32 32 36 39 36 32 32 34 33 33 34 33 31 29 27 23 18 15 13 12 14 17 18 17 16 13 11 10 10 8 6 7 10 12 13 13 13 12 12 13 14 16 18 20 21 21 20 19 19 19 19 20 20 20 20 20 19 19 20 20 20
12 13 13 14 14 13 12 14 16 18 22 26 29 31 33 31 30 32 34 34 33 31 32 35 36 34 36 39 36 33 33 33 33 33 33 32 30 29 28 25 20 16 14 12 12 13 14 14 13 12 11 10 9 7 9 10 10 11 12 13 12 12 13 15 17 19 21 22 22 21 21 20 19 19 19 19 19 19 20 20 19 20 20 20 20
Wind_Direction
234 236 231 225 222 222 220 221 220 217 213 210 209 211 212 211 211 210 208 205 203 200 197 197 199 199 201 202 202 201 203 205 206 210 212 209 207 207 208 209 210 216 220 221 220 219 220 219 220 218 213 212 214 216 218 219 219 218 221 225 231 233 225 221 222 223 223 219 218 227 241 253 263 271 275 274 267 250 213 151 102 93 79 32 1
231 231 229 224 222 220 218 220 219 217 214 211 212 213 212 212 213 213 210 208 205 201 198 198 200 202 203 203 202 201 203 204 205 209 211 210 208 208 210 211 215 221 226 226 224 223 223 221 221 218 214 213 212 213 216 220 220 220 223 225 228 233 232 228 225 224 226 232 237 239 242 249 259 264 263 258 249 233 206 178 152 141 145 142 124
224 224 224 223 222 219 217 218 219 220 217 212 212 212 212 214 215 215 214 212 207 203 202 201 203 205 206 206 205 204 205 205 205 209 212 211 211 211 213 215 218 223 227 230 228 227 225 222 221 217 215 215 212 212 217 220 221 223 227 230 230 228 229 232 232 232 231 234 237 241 244 246 252 256 251 243 235 223 208 186 168 160 162 163 151
221 220 220 221 219 216 215 217 218 219 217 214 213 214 215 215 215 215 215 215 210 205 205 205 205 207 207 209 210 208 208 207 207 209 212 213 213 214 215 217 219 221 224 229 230 230 227 222 218 216 216 217 216 218 221 222 223 226 229 234 236 231 231 234 237 237 237 237 234 235 242 243 249 255 244 231 225 216 204 189 173 168 172 173 161
220 218 217 218 216 216 216 217 218 218 217 217 217 218 217 215 214 215 216 216 213 208 207 207 206 206 205 207 210 211 210 210 209 208 210 213 214 215 217 218 219 221 224 227 230 230 227 221 217 215 216 218 219 222 225 228 230 233 236 239 241 242 243 243 243 241 239 240 239 238 239 241 253 258 236 225 223 212 198 190 181 173 177 177 167
223 221 220 219 218 217 216 216 217 218 220 221 221 221 219 216 215 215 215 216 214 211 210 209 208 207 206 207 208 209 209 211 211 209 208 212 214 215 219 220 220 222 226 228 229 230 228 222 217 214 215 216 217 221 228 233 236 238 241 244 247 251 252 250 248 244 239 239 239 241 245 251 261 255 227 219 217 209 200 192 187 180 180 181 179
225 223 222 220 218 216 214 214 215 218 222 224 223 222 219 217 216 215 215 216 215 213 213 212 210 210 211 211 211 211 210 211 212 210 211 214 215 216 220 221 220 223 226 229 230 229 227 223 218 215 216 216 218 223 231 237 240 241 243 248 251 252 252 252 250 244 239 239 240 243 246 251 257 253 237 227 217 209 204 199 196 192 187 188 194
225 221 219 218 218 217 216 215 216 220 222 221 220 220 219 217 216 216 216 216 216 216 215 215 214 213 213 214 215 215 214 215 214 212 212 215 218 220 221 221 222 224 226 229 230 229 228 224 220 218 219 222 226 231 239 242 243 243 246 252 254 255 256 255 251 245 243 243 243 245 247 250 252 253 249 242 235 223 211 206 206 201 194 195 203
225 222 220 218 218 220 220 219 219 220 219 218 219 220 219 217 216 216 216 216 217 218 218 218 217 216 215 215 216 217 218 219 218 215 214 216 219 222 222 222 223 225 227 229 229 228 229 225 223 223 223 227 233 238 243 245 247 250 253 256 258 260 260 257 250 246 247 248 249 250 251 252 251 249 246 240 239 235 223 218 215 206 199 201 209
224 223 222 220 220 222 224 224 223 221 219 219 220 220 218 216 217 217 216 216 218 219 221 221 220 219 218 217 217 217 218 219 219 218 217 218 220 221 222 223 225 227 229 230 230 229 227 226 225 226 228 232 238 242 245 248 252 257 260 263 264 262 257 252 247 246 247 249 251 253 254 254 253 251 248 242 239 238 236 233 227 216 207 207 211
223 222 222 222 221 221 222 223 222 220 217 216 217 217 217 216 217 217 216 217 218 219 222 222 222 222 221 220 219 219 218 217 217 216 217 218 220 221 222 224 227 230 230 231 233 230 228 229 228 227 230 235 241 246 249 252 254 256 260 263 265 262 251 244 244 245 247 248 250 252 255 258 260 261 257 253 250 248 248 247 236 222 212 210 213
222 219 219 220 220 219 218 218 218 215 211 211 213 216 216 215 216 216 216 217 217 219 222 223 224 224 223 222 221 221 220 218 217 215 215 217 220 221 222 225 227 229 230 231 233 233 232 232 231 229 230 234 241 247 251 255 253 254 260 265 261 255 248 242 243 247 250 253 255 257 261 264 267 267 261 252 250 254 257 255 243 221 208 208 213
223 218 216 216 218 218 217 215 214 212 210 210 212 215 215 214 215 215 216 216 216 218 221 223 225 226 225 223 223 223 222 221 219 218 218 219 220 221 223 225 227 228 229 230 232 234 234 234 234 234 232 234 240 245 250 253 252 251 255 264 260 251 248 246 246 251 255 258 260 262 265 267 268 267 260 248 242 247 250 247 240 220 209 211 214
226 219 214 213 216 218 216 214 213 212 212 211 212 214 214 213 214 215 216 216 216 218 221 224 225 226 226 224 224 224 224 224 222 222 222 222 223 224 226 229 231 232 233 233 234 234 235 235 236 236 235 237 240 244 250 251 249 246 247 256 257 248 244 244 246 252 255 258 260 261 262 264 265 263 258 249 242 245 244 239 232 216 208 215 218
230 221 216 213 215 218 216 213 212 213 213 212 212 213 213 213 214 214 215 216 216 217 220 224 225 226 226 225 225 225 226 226 225 225 226 226 227 227 229 233 235 237 237 238 238 237 237 237 237 237 238 240 244 249 254 252 247 243 244 251 253 245 241 242 246 251 254 257 258 258 258 259 259 254 252 249 247 249 246 239 235 220 208 210 216
233 220 216 214 214 217 216 212 212 213 214 213 212 213 213 214 214 215 215 216 216 217 220 223 225 225 225 225 225 225 226 227 227 227 228 229 229 229 232 235 238 240 240 239 239 238 238 239 239 239 240 243 249 255 258 256 248 243 248 254 251 245 243 243 247 250 253 254 252 250 251 253 252 248 248 250 250 251 245 238 236 230 221 214 212
237 220 213 213 214 215 215 212 211 213 213 213 213 214 216 216 215 215 214 215 216 217 220 222 224 225 225 225 225 225 226 227 227 229 230 230 229 230 233 236 239 242 242 240 239 238 237 237 237 237 240 247 254 257 256 253 246 242 249 254 247 243 244 245 247 248 248 246 244 245 247 248 247 245 248 249 249 248 244 238 233 231 233 230 223
242 224 211 210 212 213 213 212 212 214 214 214 215 216 217 217 216 215 214 215 215 217 220 222 223 224 224 224 224 225 226 227 228 229 231 230 228 229 232 235 238 241 242 241 239 239 238 236 236 238 243 250 251 249 248 244 238 239 247 249 242 242 244 245 247 246 244 241 240 243 247 247 245 245 246 246 244 243 242 240 234 228 232 237 241
240 225 211 208 210 213 213 212 213 215 215 216 216 216 216 215 215 216 216 215 215 216 220 222 223 224 224 224 224 225 226 226 227 229 230 229 228 229 230 233 236 238 240 240 238 239 239 237 239 242 248 250 246 246 249 248 245 246 251 248 242 244 247 248 247 244 243 243 242 244 245 246 245 245 244 241 240 242 242 241 238 232 231 235 242
238 224 212 209 210 213 214 213 213 214 214 215 215 213 213 214 215 215 214 214 214 216 220 222 223 224 223 223 223 224 226 226 227 228 228 228 228 228 229 231 235 236 237 238 238 239 240 240 243 247 251 249 244 245 251 254 255 252 248 245 243 246 249 249 246 241 240 241 242 243 243 243 243 243 243 241 241 244 246 246 242 238 238 237 238
238 221 212 209 210 212 214 215 214 214 214 214 212 211 212 212 213 213 213 213 214 216 220 222 223 223 222 222 222 223 224 225 226 227 227 227 226 226 227 230 235 237 237 236 237 238 240 243 245 249 253 248 244 246 248 252 255 250 243 242 243 245 248 247 242 237 237 239 240 241 241 241 241 240 241 243 245 248 249 250 248 244 241 240 239
247 218 211 208 209 211 213 213 213 212 211 210 209 209 209 210 211 212 212 213 214 216 219 222 222 222 222 221 222 223 223 224 224 226 225 224 225 225 225 227 232 238 239 235 235 237 241 244 247 252 252 245 243 248 250 251 252 247 243 244 246 248 248 245 240 236 237 238 239 242 242 241 240 241 242 242 246 250 251 251 251 248 244 242 242
278 219 211 208 208 209 211 212 212 212 210 209 208 207 208 210 211 211 212 214 215 216 219 221 221 221 221 221 222 223 223 223 224 224 224 223 223 224 224 226 230 236 238 233 232 237 241 245 249 253 249 240 241 248 249 248 247 244 244 247 248 249 248 245 240 237 239 240 240 243 245 243 242 242 244 245 248 250 251 252 252 249 243 238 237
326 224 211 208 209 208 209 210 211 211 210 208 207 207 208 209 210 211 213 214 214 215 217 219 220 220 220 220 221 222 223 223 223 224 223 222 222 223 223 224 228 235 237 231 230 236 241 245 251 251 243 236 240 247 246 242 239 238 240 242 244 245 245 242 238 235 237 241 243 245 247 246 243 243 246 249 253 255 255 254 252 251 243 232 228
343 245 215 209 208 208 208 209 209 209 209 208 207 206 207 208 210 212 214 213 212 213 215 217 219 219 219 220 221 222 222 222 223 223 222 220 221 221 220 221 225 233 236 232 232 237 240 245 251 248 238 235 241 247 245 239 233 233 234 236 237 238 239 236 233 233 235 238 242 245 246 246 244 245 249 252 256 260 261 259 259 258 243 227 222
343 288 224 213 210 208 208 208 207 207 207 207 206 206 206 207 210 212 213 211 211 213 214 215 216 217 218 219 220 221 222 221 222 222 221 219 220 219 218 219 223 231 234 231 234 239 242 246 249 244 237 236 241 245 244 236 230 230 232 233 234 235 234 230 228 231 233 234 236 238 240 241 241 244 248 252 257 260 263 267 267 257 235 221 218
341 309 237 218 212 209 207 206 206 206 207 207 206 206 206 206 208 210 210 209 209 211 211 212 214 216 217 218 220 222 222 221 221 221 220 219 219 219 217 217 224 231 232 231 235 239 241 245 244 239 236 238 241 245 242 233 227 228 231 232 235 236 233 229 225 227 231 232 232 233 235 236 238 240 243 247 251 258 264 266 263 251 235 227 226
339 313 248 220 212 209 206 205 205 205 206 207 206 206 206 207 209 208 207 207 208 208 209 210 212 214 216 218 220 221 222 221 220 219 219 220 220 218 215 216 224 230 229 230 236 238 240 242 238 232 232 236 241 244 239 230 226 228 230 232 233 234 233 230 225 226 229 230 229 230 231 231 233 235 237 241 244 255 260 257 261 260 243 234 235
338 315 262 222 212 208 205 204 204 204 205 206 206 206 206 207 208 207 205 206 207 207 208 209 211 213 215 217 218 219 220 221 220 218 218 219 218 215 214 219 225 228 227 229 234 236 238 239 232 226 227 232 238 241 237 230 228 229 231 234 234 233 232 230 228 227 229 230 230 230 229 229 229 231 235 239 243 260 267 263 266 262 244 235 239
336 314 268 225 212 208 205 204 203 204 204 205 205 206 206 206 206 205 205 205 206 206 206 207 209 213 214 215 215 217 218 219 219 219 219 218 215 215 217 218 221 227 229 229 230 233 236 233 226 223 226 231 237 241 237 231 229 230 232 234 234 232 231 230 229 230 231 232 230 228 228 227 228 234 237 236 245 266 270 263 257 251 244 246 247
330 309 258 222 211 208 206 205 204 204 204 204 205 206 206 206 205 204 204 205 206 206 206 207 209 211 213 213 214 216 217 217 219 221 220 217 216 217 218 218 221 226 226 225 229 233 232 227 222 221 225 231 237 242 238 232 229 230 232 232 232 232 233 232 231 231 232 232 230 229 230 231 238 245 240 238 257 271 264 248 238 239 244 248 250
325 304 249 217 208 206 206 205 204 204 203 203 205 205 205 205 204 203 204 204 205 205 206 207 209 210 212 213 214 216 216 215 218 222 219 215 216 217 218 222 224 223 219 221 230 233 226 222 224 223 225 230 235 239 238 233 231 231 232 232 232 232 233 233 233 232 231 231 231 233 237 241 248 248 241 248 266 267 247 231 231 238 240 238 242
322 298 245 217 209 207 206 205 204 203 203 204 204 205 205 205 204 204 203 203 204 205 206 206 207 209 211 212 213 214 213 211 217 221 215 213 217 218 219 221 221 218 216 220 229 229 219 220 226 225 225 230 235 236 235 232 232 231 232 233 232 232 233 233 234 233 232 233 235 239 245 248 247 244 246 257 262 249 233 229 232 238 241 240 240
329 307 250 220 211 209 207 206 205 205 205 205 205 206 207 206 205 204 202 202 203 204 204 205 206 208 210 212 212 212 211 210 216 221 215 213 218 218 218 220 217 214 214 218 225 226 218 219 225 226 226 231 236 236 232 229 228 229 231 232 232 232 232 233 234 235 236 239 242 248 252 250 246 249 255 256 249 236 231 235 238 240 242 243 243
334 322 269 230 214 209 207 205 205 205 205 205 206 207 207 207 206 204 203 202 202 203 203 204 206 207 209 212 212 211 211 210 215 221 217 217 218 216 217 218 212 211 216 217 220 224 222 223 226 224 223 229 235 233 229 227 225 225 228 229 230 231 231 231 232 233 234 240 247 253 253 247 246 254 255 249 240 233 233 237 241 243 244 245 247
333 328 278 245 225 214 209 205 204 203 203 205 207 207 207 207 207 206 204 203 202 201 202 203 204 206 209 211 211 210 210 210 215 218 217 219 218 213 213 212 206 211 219 217 217 223 225 225 227 224 223 227 230 229 226 224 223 223 224 226 228 231 232 231 231 232 233 238 247 252 250 248 253 257 250 241 235 233 233 236 240 243 247 250 252
335 330 277 247 235 223 214 208 204 203 204 206 207 207 206 206 206 206 204 203 201 201 202 203 204 207 209 210 210 209 208 212 216 216 217 220 216 211 211 209 206 213 218 215 217 222 221 221 228 229 225 222 222 225 225 223 222 222 223 225 229 232 233 232 232 233 235 238 245 249 248 254 262 257 245 236 233 232 233 234 237 243 249 254 257
336 328 272 236 226 222 216 211 207 205 206 207 206 206 205 205 206 205 204 203 201 201 203 204 206 208 209 209 209 209 210 214 214 215 219 218 211 210 213 209 210 217 216 212 215 220 218 218 226 229 223 215 215 222 224 223 223 222 223 225 230 234 235 232 230 231 230 232 240 246 247 255 261 251 239 233 232 232 233 235 238 243 249 256 262
332 325 254 225 215 214 215 213 210 207 206 207 206 205 205 205 206 206 204 202 202 203 205 206 207 208 209 208 208 210 213 213 211 216 221 215 209 212 211 206 209 213 211 212 216 218 217 217 223 227 219 208 211 220 222 224 224 223 223 224 227 232 234 231 229 229 228 230 237 245 249 254 256 245 234 231 233 234 235 238 241 245 251 259 265
327 315 213 210 206 205 209 210 210 209 208 208 208 207 206 207 207 206 204 204 205 207 207 207 207 207 207 208 208 210 211 210 212 219 218 210 212 214 209 211 215 207 203 213 218 218 218 217 221 225 215 205 212 218 217 220 223 223 224 225 228 232 234 233 232 230 230 232 239 248 252 255 255 245 236 234 235 235 236 241 246 251 256 261 262
323 279 192 197 198 199 207 210 212 212 209 208 209 208 209 210 208 205 205 207 209 209 206 204 205 206 207 208 209 209 209 211 216 218 212 212 217 213 210 217 217 205 201 211 214 216 218 215 219 222 213 207 214 216 214 218 220 220 224 228 230 234 235 236 235 232 233 236 243 253 257 257 257 253 245 238 235 234 236 243 251 256 260 259 253
328 241 188 192 193 196 204 208 210 212 211 211 211 210 210 211 210 210 211 210 208 208 207 204 205 207 207 207 208 208 209 212 212 208 209 215 216 214 216 218 211 204 209 213 212 214 213 210 213 215 210 213 219 218 216 218 218 222 228 231 232 233 235 238 236 233 234 238 248 261 263 257 257 262 258 244 235 234 237 245 255 260 262 258 252
331 291 200 197 196 198 202 203 206 210 212 213 214 213 213 212 213 216 215 208 204 207 209 206 205 206 206 206 208 208 208 209 206 204 210 215 214 217 221 215 207 207 212 211 212 214 210 207 209 209 211 219 223 221 219 219 218 222 229 234 233 229 234 241 241 237 236 241 253 266 266 258 255 263 267 251 236 233 238 249 263 268 266 261 254
328 320 271 223 210 206 204 204 206 209 212 216 218 216 214 213 215 216 211 203 204 209 209 207 205 205 204 206 207 207 206 207 207 207 211 215 216 218 217 210 208 213 213 211 213 210 206 206 209 211 216 223 224 223 223 224 224 224 229 236 234 229 234 242 245 244 241 243 255 266 265 260 256 260 268 258 240 234 239 251 265 270 266 257 250
325 323 308 276 248 225 213 211 211 212 215 217 217 216 216 218 222 221 215 210 211 212 208 205 203 203 203 204 205 206 207 210 210 209 210 214 216 214 208 205 209 213 213 216 216 211 208 210 210 213 219 224 226 227 226 226 227 226 229 236 237 234 236 242 248 252 247 246 255 261 259 256 254 255 262 259 244 235 239 250 261 265 259 250 246
316 320 311 280 253 241 233 223 218 217 218 216 215 217 220 221 221 222 221 218 216 214 212 207 202 201 203 204 205 207 209 212 213 211 211 215 218 213 205 203 208 211 211 217 219 213 210 212 214 215 220 227 231 232 231 231 229 226 228 233 235 235 237 240 245 249 247 247 252 254 252 250 251 252 255 254 245 236 239 248 256 259 255 249 248
313 313 307 279 251 247 245 231 223 222 220 217 217 219 220 218 216 214 214 213 212 212 212 210 206 204 205 203 205 208 209 208 208 208 209 214 218 214 206 203 206 210 212 218 223 220 216 218 223 225 227 233 238 238 238 238 235 231 230 233 234 235 236 238 241 244 247 249 250 251 251 251 252 253 252 251 247 241 242 248 254 258 258 253 252
314 307 302 290 269 260 256 243 232 225 220 219 220 218 217 217 215 210 205 207 209 209 209 211 208 205 203 201 203 209 208 203 202 205 208 211 214 212 206 203 205 208 209 213 218 217 215 216 223 229 231 235 240 241 241 242 242 240 237 236 238 239 238 239 242 246 250 252 250 250 252 252 254 255 253 252 250 248 249 252 254 257 257 255 255
315 308 302 296 287 278 269 256 239 226 220 219 219 218 217 216 215 211 204 202 204 204 206 210 209 206 207 203 199 203 208 205 204 207 209 211 213 210 204 201 201 201 203 208 212 211 210 210 214 220 226 232 242 249 251 252 252 248 243 242 243 245 245 245 246 249 252 253 253 253 254 255 257 258 256 254 253 253 254 254 253 253 253 254 256
323 317 309 303 297 288 276 259 242 228 221 217 217 219 219 218 219 219 212 206 204 203 205 207 207 208 210 205 199 201 208 209 209 211 210 209 210 208 204 202 199 193 191 198 206 208 212 217 217 215 220 236 253 259 247 239 236 232 233 236 238 241 245 245 244 246 249 251 253 255 257 258 258 256 255 254 254 255 256 254 251 250 250 252 255
329 322 315 309 301 291 278 260 245 235 226 219 219 220 219 219 221 218 212 207 204 202 201 203 204 206 207 204 202 204 208 210 212 212 210 207 205 203 202 202 201 198 195 194 196 199 206 214 214 214 224 240 247 234 212 203 197 198 209 218 220 224 231 235 239 243 246 248 251 255 256 256 255 253 252 252 253 255 256 254 252 251 251 252 257